This is the latest recevied weather packets stored in our database for station/object NI2O. If no packets are shown the sender has not sent any weather packets the latest 10 day(s).
| Time | Temp. | Humidity | Pressure | Rain* | Wind** | Luminosity | Snow |
|---|---|---|---|---|---|---|---|
| 1777502610 | 13.89° C | 68% | 1008.9 hPa | 0 mm | - | 15 W/m² | - |
| 1777496777 | 15.56° C | 58% | 1009.5 hPa | 0 mm | - | 56 W/m² | - |
| 1777495549 | 16.11° C | 58% | 1009.6 hPa | 0 mm | - | 74 W/m² | - |
| 1777494936 | 15.56° C | 59% | 1009.4 hPa | 0 mm | - | 110 W/m² | - |
| 1777493728 | 15.56° C | 59% | 1010 hPa | 0 mm | - | 86 W/m² | - |
| 1777490026 | 16.11° C | 53% | 1011.1 hPa | 0 mm | - | 69 W/m² | - |
| 1777486956 | 16.67° C | 53% | 1011.8 hPa | 0 mm | - | 169 W/m² | - |
| 1777481739 | 17.78° C | 51% | 1012.9 hPa | 0 mm | - | 295 W/m² | - |
| 1777480512 | 17.22° C | 52% | 1013 hPa | 0 mm | - | 515 W/m² | - |
| 1777479284 | 16.11° C | 56% | 1013.4 hPa | 0 mm | - | 310 W/m² | - |
| 1777476829 | 15.56° C | 59% | 1013.9 hPa | 0 mm | - | 249 W/m² | - |
| 1777471920 | 13.89° C | 61% | 1014.2 hPa | 0 mm | - | 150 W/m² | - |
| 1777469465 | 13.89° C | 62% | 1014.5 hPa | 0 mm | - | 197 W/m² | - |
| 1777468541 | 12.78° C | 65% | 1014.4 hPa | 0 mm | - | 77 W/m² | - |
| 1777467334 | 12.78° C | 66% | 1014.4 hPa | 0 mm | - | 117 W/m² | - |
| 1777455346 | 11.67° C | 68% | 1015.2 hPa | 0 mm | - | 0 W/m² | - |
| 1777452892 | 11.11° C | 68% | 1015.2 hPa | 0 mm | - | 0 W/m² | - |
| 1777452278 | 11.11° C | 67% | 1015.2 hPa | 0 mm | - | 0 W/m² | - |
| 1777451664 | 11.11° C | 67% | 1015.3 hPa | 0 mm | - | 0 W/m² | - |
| 1777443993 | 11.67° C | 64% | 1016.3 hPa | 0 mm | - | 0 W/m² | - |
| 1777436033 | 12.78° C | 65% | 1017.1 hPa | 0 mm | - | 0 W/m² | - |
| 1777434785 | 12.78° C | 65% | 1017.3 hPa | 0 mm | - | 0 W/m² | - |
| 1777428949 | 13.33° C | 68% | 1016.7 hPa | 0 mm | - | 0 W/m² | - |
| 1777427108 | 13.89° C | 67% | 1016.6 hPa | 0 mm | - | 0 W/m² | - |
| 1777421584 | 14.44° C | 62% | 1017.4 hPa | 0 mm | - | 0 W/m² | - |
* Rain latest hour (hover to see other rain measurements)
** Current wind speed in m/s (hover to see current wind gust speed)